Other Public Products
Issued by NWS Grand Forks, ND

Home | Current Version | Previous Version | Text Only | Print | Product List | Glossary On
Versions: 1 2 3 4 5 6 7 8 9 10 11 12 13 14 15 16 17 18 19 20 21 22 23 24 25 26 27 28 29 30 31 32 33 34 35 36 37 38 39 40 41 42 43 44 45 46 47 48 49 50
000
FPUS83 KFGF 231210
OPUFGF
PRAIRIE TO PINES WEATHER ROUNDUP
NATIONAL WEATHER SERVICE EASTERN NORTH DAKOTA/GRAND FORKS ND
700 AM CDT WED AUG 23 2017

 **SATELLITE DATA USED TO AUGMENT SKY COVER AT AUTOMATED STATIONS**
 *****  WEATHER ACROSS EASTERN NORTH DAKOTA  *****

CITY           SKY/WX    TMP DP  RH WIND       PRES   REMARKS
GRAND FORKS    MOCLDY    50  47  89 E3        30.10R
6HR MIN TEMP:  45; 6HR MAX TEMP:  52;

GRAND FORKS AF CLOUDY    46  45  96 CALM      30.10R
GRAND CITY NWS NOT AVBL
BUXTON         NOT AVBL
DEVILS LAKE    FAIR      55  50  83 SE5       30.09R
6HR MIN TEMP:  48; 6HR MAX TEMP:  58;

FARGO          FAIR      46  45  96 CALM      30.11R
6HR MIN TEMP:  45; 6HR MAX TEMP:  53;

WAHPETON ARPT  FAIR      45  43  93 CALM      30.12R
$$

 *****  WEATHER ACROSS CENTRAL AND WESTERN NORTH DAKOTA  *****

CITY           SKY/WX    TMP DP  RH WIND       PRES   REMARKS
JAMESTOWN      FAIR      48  45  89 CALM      30.09S
6HR MIN TEMP:  47; 6HR MAX TEMP:  52;

BISMARCK       FAIR      49  46  90 NE6       30.08S
6HR MIN TEMP:  47; 6HR MAX TEMP:  56;

MINOT          MOCLDY    58  47  66 S7        30.02S
6HR MIN TEMP:  55; 6HR MAX TEMP:  61;

MINOT AFB      FAIR      52  46  82 SE3       30.01S
6HR MIN TEMP:  50; 6HR MAX TEMP:  56;

GARRISON         N/A     52  46  80 S3        30.05S
6HR MIN TEMP:  50; 6HR MAX TEMP:  58;

WILLISTON      FAIR      54  43  66 CALM      30.03F
6HR MIN TEMP:  51; 6HR MAX TEMP:  64;

DICKINSON      FAIR      52  43  71 S9        30.06S
6HR MIN TEMP:  51; 6HR MAX TEMP:  55;

HETTINGER      FAIR      54  45  71 E9        30.09S
6HR MIN TEMP:  53; 6HR MAX TEMP:  58;

$$

 *****  OTHER OBSERVATIONS NORTHEAST NORTH DAKOTA  *****

CITY           SKY/WX    TMP DP  RH WIND       PRES   REMARKS
WALHALLA       FAIR      52  52 100 CALM      30.09R
LANGDON        FAIR      50  50 100 SE5       30.09R
CAVALIER       FAIR      50  50 100 S3        30.09R
GRAFTON        PTSUNNY   48  48 100 CALM      30.11S
CANDO          FAIR      48  48 100 E7        30.09F
FORT TOTTEN      N/A     56  44  63 SE5       29.95S
ROLLA          FAIR      45  45 100 S3        30.07S
RUGBY          PTSUNNY   50  48  93 SE7       30.05S
 ***** THE ABOVE OBSERVATIONS ARE NON NWS ARE NOT QUALITY
        CONTROLLED AND MAY MIS-REPORT RAIN FOR SNOW...
$$

 *****  OTHER OBSERVATIONS SOUTHEAST NORTH DAKOTA *****

CITY           SKY/WX    TMP DP  RH WIND       PRES   REMARKS
COOPERSTOWN    FAIR      46  46 100 SE5       30.11R
VALLEY CITY      N/A     46  46 100 MISG      30.12S
OAKES          NOT AVBL
GWINNER        SUNNY     48  48 100 CALM      30.12R
SHEYENNE NWR     N/A     43  43 100 CALM      29.95S
BUFFALO        NOT AVBL
WYNDMERE       NOT AVBL
 ***** THE ABOVE OBSERVATIONS ARE NON NWS ARE NOT QUALITY
       CONTROLLED AND MAY MIS-REPORT RAIN FOR SNOW...
$$

  *****  WEATHER ACROSS NORTHERN MINNESOTA  *****

CITY           SKY/WX    TMP DP  RH WIND       PRES   REMARKS
FLAG ISLAND    MOCLDY    54  52  94 NW3       30.08R
WARROAD        FAIR      46  43  87 W3        30.11R
ROSEAU         FOG       46  43  87 CALM      30.11R VSB 1/4
HALLOCK        CLOUDY    48  46  93 S3        30.10R
THF RVR FALLS  CLOUDY    46  45  96 CALM      30.12S
6HR MIN TEMP:  42; 6HR MAX TEMP:  49;

HALSTAD        NOT AVBL
FOSSTON        FOG       39  39 100 CALM      30.13R VSB 1/2
BAUDETTE       FAIR      44  44 100 CALM      30.09R FOG
6HR MIN TEMP:  43; 6HR MAX TEMP:  51;

WASKISH        FAIR      41  39  93 CALM      30.10R
CROOKSTON      CLOUDY    46  46 100 CALM      30.12R
$$
  *****  WEATHER ACROSS CENTRAL AND WEST MINNESOTA  *****

CITY           SKY/WX    TMP DP  RH WIND       PRES   REMARKS
BEMIDJI          N/A     43  43 100 CALM      30.11R FOG
PARK RAPIDS    FAIR      46  42  86 W5        30.11R
6HR MIN TEMP:  45; 6HR MAX TEMP:  51;

WADENA         FAIR      46  46 100 CALM      30.11R
DETROIT LAKES  FAIR      52  46  82 CALM      30.13R
MOORHEAD       FAIR      45  43  93 CALM      30.12R
FERGUS FALLS   FAIR      50  50 100 CALM      30.12S
ELBOW LAKE     FAIR      49  48  97 CALM      30.13R
MORRIS MN      FAIR      48  46  93 CALM      30.12R
STAPLES        FAIR      46  45  93 CALM      30.11R
WHEATON        FAIR      46  45  93 CALM      30.14R
$$
  *****  WEATHER ELSEWHERE ACROSS MINNESOTA  *****

CITY           SKY/WX    TMP DP  RH WIND       PRES   REMARKS
DULUTH         FAIR      50  49  96 NW6       30.06R
6HR MIN TEMP:  48; 6HR MAX TEMP:  53;

INTRNTL FALLS  FAIR      48  47  96 CALM      30.08S FOG
6HR MIN TEMP:  46; 6HR MAX TEMP:  52;

ELY            FAIR      50  48  93 NW3       30.07R
CLOQUET        FAIR      48  45  87 W5        30.08R
BRAINERD       FAIR      47  46  97 CALM      30.11R
6HR MIN TEMP:  45; 6HR MAX TEMP:  54;

HIBBING        CLOUDY    44  44 100 CALM      30.08R
6HR MIN TEMP:  42; 6HR MAX TEMP:  50;

ALEXANDRIA     FAIR      51  49  92 W5        30.13R
6HR MIN TEMP:  49; 6HR MAX TEMP:  56;

SAINT CLOUD    FAIR      49  49 100 CALM      30.11R
6HR MIN TEMP:  47; 6HR MAX TEMP:  55;

MINNEAPOLIS    FAIR      57  50  77 W5        30.10R
6HR MIN TEMP:  56; 6HR MAX TEMP:  61;

$$

  *****  WEATHER ACROSS SOUTH DAKOTA  *****

CITY           SKY/WX    TMP DP  RH WIND       PRES   REMARKS
SIOUX FALLS    FAIR      51  50  96 CALM      30.15R
6HR MIN TEMP:  50; 6HR MAX TEMP:  56;

BROOKINGS      FAIR      49  47  93 CALM      30.15
WATERTOWN      FAIR      48  48 100 CALM      30.13S
6HR MIN TEMP:  47; 6HR MAX TEMP:  54;

HURON          FAIR      52  49  89 SE6       30.11F
6HR MIN TEMP:  51; 6HR MAX TEMP:  56;

SISSETON         N/A     49  48  97 CALM      30.10S
ABERDEEN       FAIR      43  43 100 SE3       30.11S
6HR MIN TEMP:  42; 6HR MAX TEMP:  50;

MITCHELL       FAIR      52  50  93 E5        30.13S
PIERRE         FAIR      58  52  80 SE12      30.05S
6HR MIN TEMP:  57; 6HR MAX TEMP:  61;

MOBRIDGE       FAIR      58  45  62 E8        30.06S
RAPID CITY     FAIR      52  47  83 CALM      30.05S
6HR MIN TEMP:  52; 6HR MAX TEMP:  62;

$$

  *****  SOME WEATHER IN NEARBY STATES *****

CITY           SKY/WX    TMP DP  RH WIND       PRES   REMARKS
GLASGOW MT     FAIR      57  37  47 E12       29.99S
6HR MIN TEMP:  57; 6HR MAX TEMP:  66;

GREAT FALLS MT FAIR      53  32  44 W8        30.02S
6HR MIN TEMP:  53; 6HR MAX TEMP:  67;

CHEYENNE WY    FAIR      57  40  52 W7        30.22S
6HR MIN TEMP:  53; 6HR MAX TEMP:  58;

SCOTTSBLUFF NE FAIR      56  52  86 E6        30.12R
6HR MIN TEMP:  56; 6HR MAX TEMP:  63;

OMAHA NE       FAIR      59  54  83 CALM      30.16S
6HR MIN TEMP:  57; 6HR MAX TEMP:  61;

DES MOINES IA  FAIR      55  53  93 CALM      30.14R
6HR MIN TEMP:  55; 6HR MAX TEMP:  60;

DAVENPORT IA   FAIR      52  50  93 W5        30.11R
6HR MIN TEMP:  51; 6HR MAX TEMP:  56;

CHICAGO IL     FAIR      61  50  67 W9        30.03R
6HR MIN TEMP:  60; 6HR MAX TEMP:  64;

EAU CLAIRE WI  MOCLDY    52  49  89 W5        30.07R
6HR MIN TEMP:  51; 6HR MAX TEMP:  57;

LA CROSSE WI   FAIR      56  52  86 SE5       30.07R
6HR MIN TEMP:  54; 6HR MAX TEMP:  65;

$$

  *****  SOME NATIONAL WEATHER *****

CITY           SKY/WX    TMP DP  RH WIND       PRES   REMARKS
LA GUARDIA NY  CLOUDY    75  70  84 NW14      29.79R
6HR MIN TEMP:  74; 6HR MAX TEMP:  76; 6HR PCP: TRACE;


USA.gov is the U.S. government's official web portal to all federal, state and local government web resources and services.